This demonstration page uses our WeatherBlox Daily Observations layout. Learn more.

Left ArrowRight Arrow

39.12711, -84.51439

Hourly Observations for June 11, 2021

Temp ( °F °C ) Dew Point ( °F °C ) Humidity (%) Winds ( mph kmh ) Pressure ( in mb ) Visibility ( mi km ) Precip ( " mm )
12:53 am 00:53 Mostly Cloudy with Mist and Fog 71 21.7 70 21.1 96 96 N N/A 29.85 1011 6 10 N/A
1:53 am 01:53 Mostly Cloudy with Mist and Fog 71 21.7 70 21.1 96 96 N N/A 29.84 1010 6 10 N/A
2:34 am 02:34 Mostly Cloudy with Mist and Fog 69 20.6 68 20 96 96 SSW 5 7 29.84 1010 2 3 N/A
2:44 am 02:44 Mostly Cloudy with Mist and Fog 70 21.1 69 20.6 97 97 N N/A 29.84 1010 4 6 N/A
2:53 am 02:53 Mostly Cloudy with Mist and Fog 71 21.7 69 20.6 94 94 N N/A 29.83 1010 6 10 N/A
3:53 am 03:53 Partly Cloudy 71 21.7 69 20.6 94 94 N N/A 29.82 1010 7 11 N/A
4:53 am 04:53 Mostly Cloudy with Mist and Fog 70 21.1 68 20 93 93 N N/A 29.82 1010 5 8 N/A
5:25 am 05:25 Mostly Cloudy with Mist and Fog 70 21.1 69 20.6 97 97 SW 3 6 29.82 1010 2 3 N/A
5:40 am 05:40 Partly Cloudy with Mist and Fog 70 21.1 69 20.6 97 97 N N/A 29.81 1009 5 8 N/A
5:53 am 05:53 Clear with Mist and Fog 70 21.1 69 20.6 97 97 N N/A 29.81 1009 3 5 N/A
6:12 am 06:12 Sunny with Mist and Fog 70 21.1 69 20.6 97 97 N N/A 29.81 1009 2 3 N/A
6:45 am 06:45 Sunny with Mist and Fog 70 21.1 69 20.6 97 97 SSW 5 7 29.81 1009 4 6 N/A
6:53 am 06:53 Sunny with Mist and Fog 70 21.1 69 20.6 97 97 SSW 3 6 29.81 1010 3 5 N/A
7:53 am 07:53 Sunny 73 22.8 70 21.1 90 90 N N/A 29.82 1010 7 11 N/A
8:53 am 08:53 Sunny 74 23.3 70 21.1 88 88 SSW 3 6 29.83 1010 10 16 N/A
9:53 am 09:53 Sunny 77 25 71 21.7 82 82 N N/A 29.83 1010 10 16 N/A
10:53 am 10:53 Mostly Cloudy 79 26.1 71 21.7 77 77 W 7 11 29.82 1010 10 16 N/A
11:53 am 11:53 Mostly Cloudy 83 28.3 72 22.2 70 70 W 6 9 29.82 1010 10 16 N/A
12:53 pm 12:53 Partly Cloudy 83 28.3 71 21.7 67 67 NNE 5 7 29.81 1009 10 16 N/A
1:53 pm 13:53 Mostly Cloudy 84 28.9 70 21.1 63 63 N N/A 29.80 1009 10 16 N/A
2:11 pm 14:11 Mostly Cloudy with Thunderstorms 82 27.8 70 21.1 67 67 WSW 5 7 29.77 1008 10 16 0.00 0.00
2:53 pm 14:53 Partly Cloudy 83 28.3 73 22.8 72 72 VRB 3 6 29.77 1008 10 16 0.00 0.00
3:19 pm 15:19 Partly Cloudy with Nearby Thunderstorms 81 27.2 73 22.8 77 77 VRB 6 9 29.77 1008 10 16 N/A
3:40 pm 15:40 Mostly Cloudy 81 27.2 73 22.8 77 77 VRB 6 9 29.76 1008 10 16 N/A
3:53 pm 15:53 Mostly Cloudy with Thunderstorms 80 26.7 74 23.3 82 82 VRB 6 9 29.76 1008 10 16 0.00 0.00
4:53 pm 16:53 Partly Cloudy with Nearby Thunderstorms 79 26.1 74 23.3 85 85 SSW 8 13 29.76 1008 10 16 0.00 0.00
5:53 pm 17:53 Partly Cloudy 80 26.7 73 22.8 79 79 SSE 5 7 29.75 1008 10 16 N/A
6:53 pm 18:53 Partly Cloudy with Nearby Thunderstorms 79 26.1 72 22.2 79 79 S 3 6 29.75 1008 10 16 N/A
7:53 pm 19:53 Mostly Sunny 78 25.6 74 23.3 87 87 SSE 5 7 29.77 1008 10 16 0.00 0.00
8:53 pm 20:53 Sunny 76 24.4 73 22.8 91 91 SSW 5 7 29.78 1009 10 16 N/A
9:53 pm 21:53 Mostly Clear 74 23.3 72 22.2 94 94 N N/A 29.80 1009 9 14 N/A
10:53 pm 22:53 Mostly Clear 73 22.8 71 21.7 94 94 N N/A 29.81 1010 10 16 N/A
11:53 pm 23:53 Clear with Mist and Fog 71 21.7 70 21.1 96 96 ENE 3 6 29.81 1010 2 3 N/A

Powered by AerisWeather